Weather History for Alpine, TX

Change the Weather History Date:

Sunday, May 12, 2013

  Actual Average (KMRF) Record (KMRF)
Temperature  
Mean Temperature 56 °F -  
Max Temperature 71 °F 81 °F 87 °F (2000)
Min Temperature 42 °F 49 °F 41 °F (2011)
Degree Days  
Heating Degree Days 8    
Growing Degree Days 6 (Base 50)    
Moisture  
Dew Point 38 °F    
Average Humidity 50    
Maximum Humidity 86    
Minimum Humidity 25    
Precipitation  
Precipitation 0.00 in - - ()
Sea Level Pressure  
Sea Level Pressure 30.34 in    
Wind  
Wind Speed 6 mph (ESE)    
Max Wind Speed 17 mph    
Max Gust Speed 24 mph    
Visibility 10 miles    
Events      
Averages and records for this station are not official NWS values.
T = Trace of Precipitation, MM = Missing Value Source: NWS Daily Summary

Daily Weather History Graph

Daily Weather History Graph

Search for Another Location

Airport:

Trip Planner

Search our weather history database for the weather conditions in past years. The results will help you decide how hot, cold, wet, or windy it might be!

Date:

Astronomy

May. 12, 2013 Rise Set
Actual Time 7:02 AM CDT 8:40 PM CDT
Civil Twilight 6:36 AM CDT 9:06 PM CDT
Nautical Twilight 6:04 AM CDT 9:37 PM CDT
Astronomical Twilight 5:32 AM CDT 10:10 PM CDT
Moon 9:01 AM CDT (5/12) 11:06 PM CDT (5/12)
Length of Visible Light 14h 30m
Length of Day
13h 37m
Waxing Crescent, 7% of the Moon is Illuminated
May 12
Waxing Crescent
May 17
First Quarter
May 24
Full
May 31
Last Quarter
Jun 8
New

Hourly Weather History & Observations

Time (CDT) Temp. Windchill Dew Point Humidity Pressure Visibility Wind Dir Wind Speed Gust Speed Precip Events Conditions
12:15 AM 58.3 °F - 41.9 °F 54% 30.38 in 10.0 mi SSE 4.6 mph - N/A   Clear
12:35 AM 58.5 °F - 41.7 °F 54% 30.37 in 10.0 mi SE 5.8 mph - N/A   Clear
12:55 AM 57.9 °F - 41.9 °F 55% 30.36 in 10.0 mi Calm Calm - N/A   Clear
1:15 AM 55.9 °F - 41.7 °F 59% 30.36 in 10.0 mi Calm Calm - N/A   Clear
1:35 AM 52.5 °F - 44.4 °F 74% 30.35 in 10.0 mi North 5.8 mph - N/A   Clear
1:55 AM 52.5 °F - 44.8 °F 75% 30.34 in 10.0 mi North 4.6 mph - N/A   Clear
2:15 AM 52.7 °F - 45.7 °F 77% 30.34 in 10.0 mi North 4.6 mph - N/A   Clear
2:35 AM 51.3 °F - 45.9 °F 82% 30.32 in 10.0 mi NNE 4.6 mph - N/A   Clear
2:55 AM 50.5 °F - 45.9 °F 84% 30.32 in 10.0 mi North 4.6 mph - N/A   Clear
3:15 AM 50.5 °F - 45.3 °F 82% 30.32 in 10.0 mi NW 3.5 mph - N/A   Clear
3:35 AM 49.8 °F - 44.1 °F 81% 30.32 in 10.0 mi Calm Calm - N/A   Clear
3:55 AM 48.7 °F - 44.1 °F 84% 30.33 in 10.0 mi SSW 3.5 mph - N/A   Clear
4:15 AM 48.4 °F - 43.0 °F 82% 30.34 in 10.0 mi Calm Calm - N/A   Clear
4:35 AM 48.2 °F - 42.6 °F 81% 30.34 in 10.0 mi SW 3.5 mph - N/A   Clear
4:55 AM 47.1 °F - 41.9 °F 82% 30.34 in 10.0 mi SW 4.6 mph - N/A   Clear
5:15 AM 45.9 °F 44.6 °F 40.8 °F 83% 30.34 in 10.0 mi SW 3.5 mph - N/A   Clear
5:35 AM 44.4 °F 42.0 °F 39.9 °F 84% 30.34 in 10.0 mi SW 4.6 mph - N/A   Clear
5:55 AM 43.9 °F 40.5 °F 39.6 °F 85% 30.34 in 10.0 mi SSW 5.8 mph - N/A   Clear
6:15 AM 43.5 °F 40.1 °F 38.8 °F 84% 30.34 in 10.0 mi SW 5.8 mph - N/A   Clear
6:35 AM 43.0 °F 41.3 °F 38.3 °F 84% 30.34 in 10.0 mi WSW 3.5 mph - N/A   Clear
6:55 AM 42.6 °F - 37.9 °F 83% 30.35 in 10.0 mi Calm Calm - N/A   Clear
7:15 AM 43.2 °F - 39.2 °F 86% 30.35 in 10.0 mi Calm Calm - N/A   Clear
7:35 AM 42.4 °F - 38.5 °F 86% 30.35 in 10.0 mi Calm Calm - N/A   Clear
7:55 AM 45.1 °F - 39.9 °F 82% 30.36 in 10.0 mi Calm Calm - N/A   Clear
8:15 AM 51.1 °F - 41.9 °F 71% 30.37 in 10.0 mi South 3.5 mph - N/A   Clear
8:35 AM 54.5 °F - 42.1 °F 63% 30.38 in 10.0 mi Calm Calm - N/A   Clear
8:55 AM 55.9 °F - 41.9 °F 59% 30.38 in 10.0 mi Calm Calm - N/A   Clear
9:15 AM 58.1 °F - 42.3 °F 56% 30.38 in 10.0 mi NNE 5.8 mph - N/A   Clear
9:35 AM 60.1 °F - 41.4 °F 50% 30.39 in 10.0 mi NE 4.6 mph - N/A   Clear
9:55 AM 61.3 °F - 41.5 °F 48% 30.39 in 10.0 mi NE 6.9 mph - N/A   Clear
10:15 AM 63.7 °F - 41.5 °F 44% 30.39 in 10.0 mi ENE 11.5 mph - N/A   Clear
10:35 AM 64.6 °F - 40.8 °F 42% 30.38 in 10.0 mi East 11.5 mph 16.1 mph N/A   Clear
10:55 AM 64.8 °F - 39.9 °F 40% 30.38 in 10.0 mi East 12.7 mph 17.3 mph N/A   Mostly Cloudy
11:15 AM 66.2 °F - 38.8 °F 37% 30.38 in 10.0 mi East 6.9 mph 23.0 mph N/A   Mostly Cloudy
11:35 AM 65.8 °F - 36.7 °F 34% 30.38 in 10.0 mi ESE 11.5 mph 21.9 mph N/A   Scattered Clouds
11:55 AM 67.1 °F - 37.9 °F 34% 30.38 in 10.0 mi ESE 13.8 mph 23.0 mph N/A   Mostly Cloudy
12:15 PM 68.5 °F - 37.4 °F 32% 30.38 in 10.0 mi ENE 16.1 mph 21.9 mph N/A   Mostly Cloudy
12:35 PM 68.9 °F - 37.8 °F 32% 30.37 in 10.0 mi ESE 15.0 mph 21.9 mph N/A   Mostly Cloudy
12:55 PM 67.3 °F - 38.3 °F 35% 30.37 in 10.0 mi SE 9.2 mph 23.0 mph N/A   Mostly Cloudy
1:15 PM 67.1 °F - 35.2 °F 31% 30.36 in 10.0 mi SE 17.3 mph 23.0 mph N/A   Overcast
1:35 PM 69.3 °F - 34.9 °F 28% 30.35 in 10.0 mi SE 17.3 mph 23.0 mph N/A   Mostly Cloudy
1:55 PM 69.8 °F - 34.9 °F 28% 30.35 in 10.0 mi ESE 12.7 mph 23.0 mph N/A   Scattered Clouds
2:15 PM 71.4 °F - 33.6 °F 25% 30.35 in 10.0 mi ESE 17.3 mph 21.9 mph N/A   Scattered Clouds
2:35 PM 68.4 °F - 34.2 °F 28% 30.34 in 10.0 mi ESE 15.0 mph 24.2 mph N/A   Mostly Cloudy
2:55 PM 70.0 °F - 34.7 °F 27% 30.33 in 10.0 mi East 10.4 mph 21.9 mph N/A   Mostly Cloudy
3:15 PM 70.5 °F - 35.1 °F 27% 30.33 in 10.0 mi East 9.2 mph 17.3 mph N/A   Scattered Clouds
3:35 PM 68.4 °F - 33.8 °F 28% 30.32 in 10.0 mi East 11.5 mph - N/A   Scattered Clouds
3:55 PM 67.8 °F - 35.6 °F 30% 30.32 in 10.0 mi ESE 10.4 mph 16.1 mph N/A   Mostly Cloudy
4:15 PM 71.1 °F - 35.4 °F 27% 30.31 in 10.0 mi SE 10.4 mph 24.2 mph N/A   Mostly Cloudy
4:35 PM 68.9 °F - 35.4 °F 29% 30.30 in 10.0 mi ESE 9.2 mph 21.9 mph N/A   Mostly Cloudy
4:55 PM 70.2 °F - 33.8 °F 26% 30.29 in 10.0 mi East 6.9 mph - N/A   Scattered Clouds
5:15 PM 68.5 °F - 34.5 °F 29% 30.29 in 10.0 mi SE 10.4 mph 16.1 mph N/A   Scattered Clouds
5:35 PM 70.3 °F - 35.4 °F 28% 30.28 in 10.0 mi East 13.8 mph 23.0 mph N/A   Scattered Clouds
5:55 PM 71.1 °F - 35.2 °F 27% 30.28 in 10.0 mi East 11.5 mph - N/A   Scattered Clouds
6:15 PM 70.2 °F - 35.4 °F 28% 30.28 in 10.0 mi SSE 11.5 mph 16.1 mph N/A   Mostly Cloudy
6:35 PM 69.3 °F - 34.7 °F 28% 30.27 in 10.0 mi East 12.7 mph 18.4 mph N/A   Scattered Clouds
6:55 PM 69.8 °F - 34.7 °F 27% 30.27 in 10.0 mi East 15.0 mph - N/A   Scattered Clouds
7:15 PM 68.9 °F - 34.3 °F 28% 30.27 in 10.0 mi ENE 11.5 mph - N/A   Scattered Clouds
7:35 PM 68.7 °F - 35.1 °F 29% 30.27 in 10.0 mi ESE 9.2 mph - N/A   Scattered Clouds
7:55 PM 67.5 °F - 34.7 °F 30% 30.28 in 10.0 mi ESE 9.2 mph - N/A   Scattered Clouds
8:15 PM 66.4 °F - 35.2 °F 32% 30.28 in 10.0 mi SE 8.1 mph 16.1 mph N/A   Clear
8:35 PM 64.9 °F - 35.6 °F 34% 30.28 in 10.0 mi ESE 10.4 mph - N/A   Clear
8:55 PM 63.9 °F - 35.8 °F 35% 30.29 in 10.0 mi ESE 10.4 mph - N/A   Clear
9:15 PM 63.0 °F - 36.0 °F 37% 30.30 in 10.0 mi SE 9.2 mph - N/A   Clear
9:35 PM 61.9 °F - 36.1 °F 38% 30.31 in 10.0 mi SE 6.9 mph - N/A   Clear
9:55 PM 61.3 °F - 36.1 °F 39% 30.31 in 10.0 mi SE 9.2 mph - N/A   Clear
10:15 PM 60.1 °F - 36.1 °F 41% 30.32 in 10.0 mi SE 6.9 mph - N/A   Clear
10:35 PM 59.0 °F - 36.5 °F 43% 30.32 in 10.0 mi SE 5.8 mph - N/A   Clear
10:55 PM 57.9 °F - 36.5 °F 45% 30.34 in 10.0 mi SSE 5.8 mph - N/A   Clear
11:15 PM 57.7 °F - 36.7 °F 45% 30.35 in 10.0 mi SE 8.1 mph - N/A   Clear
11:35 PM 58.3 °F - 36.5 °F 44% 30.35 in 10.0 mi SE 6.9 mph - N/A   Clear
11:55 PM 55.6 °F - 36.0 °F 48% 30.35 in 10.0 mi SE 6.9 mph - N/A   Clear